User: anonymous   Login
Location: NJAA Observatory
(40.6819°N, 74.8979°W)
Time: 11:20:39
(UTC-04:00)
Language:

Cosmos 2263 Rocket - Orbit

View from above orbital plane
View from above orbital plane
View from above satellite
View from above satellite

Ground track
Ground track

The orbit data is extracted from the following two-line orbital elements,

1 22803U 93059B   17229.15678980  .00000133  00000-0  90135-4 0  9995
2 22803  70.9909 120.9634 0019337 290.4630  69.4417 14.16777869236911
Epoch (UTC): 17 August 2017 03:45:46
Eccentricity: 0.0019337
inclination: 70.9909°
perigee height: 822 km
apogee height: 850 km
right ascension of ascending node: 120.9634°
argument of perigee: 290.4630°
revolutions per day: 14.16777869
mean anomaly at epoch: 69.4417°
orbit number at epoch: 23691

The dashed part of the orbit path shows where the satellite is in the earth's shadow,  

DLR